Tracking 19562 objects as of 23-Mar-2019
HD Live streaming from Space Station
objects crossing your sky now

GONETS M 03

Track GONETS M 03 now!
10-day predictions
GONETS M 03 is classified as:


NORAD ID: 38734
Int'l Code: 2012-041B
Perigee: 1,480.2 km
Apogee: 1,506.7 km
Inclination: 82.5 °
Period: 115.7 minutes
Semi major axis: 7864 km
RCS: 1.8381 m2 (large)
Launch date: July 28, 2012
Source: Commonwealth of Independent States (former USSR) (CIS)
Launch site: PLESETSK MISSILE AND SPACE COMPLEX (PKMTR)

Gonets-M1 is a telecoms satellites.
aabbcc
Your satellite tracking list
Your tracking list is empty




NASA's NSSDC Master Catalog

Two Line Element Set (TLE):
1 38734U 12041B   19082.08002534  .00000039  00000-0  20741-3 0  9994
2 38734  82.4706 280.0985 0016885  85.1037 275.1977 12.44803037301877
Source of the keplerian elements: AFSPC